DW4480 Assen NL current weather conditions

sailwx.info

Wind from 168

Air temperature 29.4° C
Dewpoint 19.1° C

Last reported at 2020-Aug-11 18:01 UTC.
Time now 2020-Aug-11 18:36 UTC

Location: N 53°05' E 006°23'.
View on Google Maps.

See reports from other nearby stations

  
Tides and Currents Weather Stations Pressure Air Temp Water Temp Dewpoint Dewpoint Depression Visibility Wind Speed Wind Dir Waves Ship Positions
date/time (UTC)wind fromknots sea level pressurealtimeterstation pressurevisibilityair tempwater tempwave heightnotes
2020-Aug-11 18:01 168 29.4
2020-Aug-11 17:46 252 30.0
2020-Aug-11 17:30 044 30.0
2020-Aug-11 17:15 232 30.6
2020-Aug-11 17:00 238 31.7
2020-Aug-11 16:46 249 32.2
2020-Aug-11 16:30 155 32.8
2020-Aug-11 16:15 242 32.8
2020-Aug-11 16:00 313 33.3
2020-Aug-11 15:45 308 33.3
2020-Aug-11 15:30 169 32.8
2020-Aug-11 15:15 104 32.8
2020-Aug-11 15:00 275 0 gusting 6 32.8
2020-Aug-11 14:45 277 32.8
2020-Aug-11 14:30 179 32.8
2020-Aug-11 14:15 350 32.2
2020-Aug-11 14:00 148 1 gusting 8 32.2
2020-Aug-11 13:32 228 33.3
2020-Aug-11 13:20 144 1 gusting 8 32.8
2020-Aug-11 13:03 179 0 gusting 8 32.8
2020-Aug-11 12:46 321 0 gusting 6 32.8
2020-Aug-11 12:32 074 1 gusting 9 32.2
2020-Aug-11 12:16 162 3 gusting 10 31.7
2020-Aug-11 12:02 293 0 gusting 7 32.2
2020-Aug-11 11:46 279 1 gusting 10 31.7
2020-Aug-11 11:31 056 3 gusting 6 31.7
2020-Aug-11 11:16 247 31.1
2020-Aug-11 11:01 272 30.6
2020-Aug-11 10:46 060 0 gusting 7 30.0
2020-Aug-11 10:31 166 0 gusting 5 29.4
2020-Aug-11 10:15 246 0 gusting 6 29.4
2020-Aug-11 10:00 325 0 gusting 10 28.9
2020-Aug-11 09:45 107 1 gusting 7 28.3
2020-Aug-11 09:30 336 0 gusting 6 28.3
2020-Aug-11 09:15 333 0 gusting 4 27.8
2020-Aug-11 09:00 139 0 gusting 6 27.2
2020-Aug-11 08:45 149 0 gusting 6 26.7
2020-Aug-11 08:30 130 1 gusting 6 26.1
2020-Aug-11 08:16 308 0 gusting 4 25.6
2020-Aug-11 08:02 139 25.0
2020-Aug-11 07:46 261 25.0
2020-Aug-11 07:31 341 23.9
2020-Aug-11 07:15 264 22.8
2020-Aug-11 07:01 333 0 gusting 3 22.2
2020-Aug-11 06:45 267 21.1
2020-Aug-11 06:30 121 20.6
2020-Aug-11 06:15 298 19.4
2020-Aug-11 06:00 281 18.9
2020-Aug-11 05:45 242 18.3
2020-Aug-11 05:30 242 18.3
2020-Aug-11 05:15 280 17.8
2020-Aug-11 05:00 280 17.2
2020-Aug-11 04:45 280 17.2
2020-Aug-11 04:33 280 17.2
2020-Aug-11 04:16 280 17.2
2020-Aug-11 04:01 280 17.2
2020-Aug-11 03:47 280 17.8
2020-Aug-11 03:31 280 17.8
2020-Aug-11 03:16 280 18.3
2020-Aug-11 03:01 280 18.3
2020-Aug-11 02:47 280 18.3
2020-Aug-11 02:31 280 18.3
2020-Aug-11 02:16 280 18.3
2020-Aug-11 02:01 280 18.3
2020-Aug-11 01:46 280 18.3
2020-Aug-11 01:31 280 18.3
2020-Aug-11 01:17 280 18.3
2020-Aug-11 01:01 280 18.3
2020-Aug-11 00:46 280 18.9
2020-Aug-11 00:30 280 18.9
2020-Aug-10 23:01 210 20.0
2020-Aug-10 22:47 210 20.6
2020-Aug-10 22:31 210 20.6
2020-Aug-10 22:16 210 20.6
2020-Aug-10 22:01 210 21.1
2020-Aug-10 21:47 210 21.1
2020-Aug-10 21:31 210 21.7
2020-Aug-10 21:16 210 21.7
2020-Aug-10 21:01 257 21.7
2020-Aug-10 20:46 257 22.2
2020-Aug-10 20:31 257 22.8
2020-Aug-10 20:16 257 23.3
2020-Aug-10 20:01 257 23.9
2020-Aug-10 19:45 257 25.0
2020-Aug-10 19:31 257 25.6
2020-Aug-10 19:17 257 26.1
2020-Aug-10 19:01 141 27.2
2020-Aug-10 18:45 141 27.8
2020-Aug-10 18:30 141 28.9
2020-Aug-10 18:16 141 28.9
2020-Aug-10 18:01 141 29.4
2020-Aug-10 17:47 141 30.0
2020-Aug-10 17:31 141 31.1
2020-Aug-10 17:16 123 31.1
2020-Aug-10 17:01 287 31.7
2020-Aug-10 16:45 254 32.2
2020-Aug-10 16:31 261 32.2
2020-Aug-10 16:15 186 32.2
2020-Aug-10 16:01 355 32.2
2020-Aug-10 15:45 005 32.2
2020-Aug-10 15:30 186 32.8
2020-Aug-10 15:15 005 32.2
2020-Aug-10 15:00 248 32.2
2020-Aug-10 14:46 340 0 gusting 6 32.8
2020-Aug-10 14:30 138 32.8
2020-Aug-10 14:15 236 32.8
2020-Aug-10 14:01 317 32.8
2020-Aug-10 13:45 130 0 gusting 6 32.2
2020-Aug-10 13:32 351 0 gusting 4 32.2
2020-Aug-10 13:16 137 32.2
2020-Aug-10 13:00 016 31.7
2020-Aug-10 12:45 005 31.7
2020-Aug-10 12:30 057 0 gusting 6 31.7
2020-Aug-10 12:15 347 31.7
2020-Aug-10 12:00 335 0 gusting 6 30.6
2020-Aug-10 11:45 326 30.6
2020-Aug-10 11:30 135 30.6
2020-Aug-10 11:16 059 30.0
2020-Aug-10 11:03 195 29.4
2020-Aug-10 10:46 340 0 gusting 4 29.4
2020-Aug-10 10:31 271 28.9
2020-Aug-10 10:16 355 28.3
2020-Aug-10 10:01 049 27.8
2020-Aug-10 09:46 142 27.2
2020-Aug-10 09:30 289 27.2
2020-Aug-10 09:15 116 26.7
2020-Aug-10 09:00 138 26.1
2020-Aug-10 08:45 132 25.6
2020-Aug-10 08:30 178 25.0
2020-Aug-10 08:15 268 24.4
2020-Aug-10 08:00 171 23.9
2020-Aug-10 07:45 300 23.3
2020-Aug-10 07:30 099 22.8
2020-Aug-10 07:17 282 21.7
2020-Aug-10 07:02 221 20.6
2020-Aug-10 06:46 142 20.0
2020-Aug-10 06:31 340 19.4
2020-Aug-10 06:16 123 18.9
2020-Aug-10 06:01 011 18.3
2020-Aug-10 05:46 094 17.8
2020-Aug-10 05:31 094 17.2
2020-Aug-10 05:02 344 16.7
2020-Aug-10 04:46 344 16.1
2020-Aug-10 04:31 344 16.1
2020-Aug-10 04:16 344 16.1
2020-Aug-10 04:01 344 16.1
2020-Aug-10 03:45 344 16.1
2020-Aug-10 03:30 344 16.1
2020-Aug-10 03:17 344 16.7
2020-Aug-10 03:01 344 16.7
2020-Aug-10 02:45 040 16.7
2020-Aug-10 02:31 046 17.2
2020-Aug-10 02:15 017 17.2
2020-Aug-10 02:00 017 17.2
2020-Aug-10 01:45 017 17.2
2020-Aug-10 01:30 017 17.8
2020-Aug-10 01:15 017 17.8
2020-Aug-10 01:00 017 17.8
2020-Aug-10 00:45 017 18.3
2020-Aug-10 00:30 017 18.3
2020-Aug-10 00:16 017 18.3
2020-Aug-10 00:01 017 18.3
2020-Aug-09 23:45 017 18.3
2020-Aug-09 23:30 017 18.3
2020-Aug-09 23:15 017 18.3
2020-Aug-09 23:00 017 18.3
2020-Aug-09 22:45 081 18.9
2020-Aug-09 22:30 087 18.9
2020-Aug-09 22:15 087 19.4
2020-Aug-09 22:00 087 19.4
2020-Aug-09 21:45 087 19.4
2020-Aug-09 21:32 087 20.0
2020-Aug-09 21:16 087 20.0
2020-Aug-09 21:01 087 20.0
2020-Aug-09 20:46 087 20.6
2020-Aug-09 20:32 355 20.6
2020-Aug-09 20:16 355 21.1
2020-Aug-09 20:02 355 21.1
2020-Aug-09 19:47 346 21.7
2020-Aug-09 19:33 019 22.2
2020-Aug-09 19:16 005 22.8
2020-Aug-09 19:01 346 23.3
2020-Aug-09 18:48 360 23.9
2020-Aug-09 18:33 034 25.0
2020-Aug-09 18:17 038 25.6
2020-Aug-09 18:02 120 26.1